Gallivare, Sweden

5:53 AM CEST on August 27, 2016 (GMT +0200)
Gallivare

Weather History for ESNG - April, 2013

Change the Weather History Date:

Wednesday, April 10, 2013

  Actual Average Record
Temperature  
Mean Temperature 20 °F -  
Max Temperature 35 °F - - ()
Min Temperature 5 °F - - ()
Degree Days  
Heating Degree Days 45    
Moisture  
Dew Point 10 °F    
Average Humidity 63    
Maximum Humidity 92    
Minimum Humidity 38    
Precipitation  
Precipitation 0.00 in - - ()
Sea Level Pressure  
Sea Level Pressure 29.86 in    
Wind  
Wind Speed 4 mph ()    
Max Wind Speed 10 mph    
Max Gust Speed -    
Visibility 6.2 miles    
Events      
T = Trace of Precipitation, MM = Missing Value Source: Averaged Metar Reports

Daily Weather History Graph

Daily Weather History Graph

Search for Another Location

Airport or City:

Trip Planner

Search our weather history database for the weather conditions in past years. The results will help you decide how hot, cold, wet, or windy it might be!

Date:

Astronomy

Apr. 10, 2013 Rise Set
Actual Time 5:11 AM CEST 8:07 PM CEST
Civil Twilight 4:09 AM CEST 9:09 PM CEST
Nautical Twilight 2:35 AM CEST 10:46 PM CEST
Astronomical Twilight Sun does not set Sun does not set
Moon 4:52 AM CEST (4/10) 8:47 PM CEST (4/10)
Length of Visible Light 16h 59m
Length of Day
14h 56m
New Moon, 0% of the Moon is Illuminated
Apr 10
New Moon
Apr 18
First Quarter
Apr 25
Full
May 2
Last Quarter
May 10
New

Hourly Weather History & Observations

Time (CEST) Temp. Windchill Dew Point Humidity Pressure Visibility Wind Dir Wind Speed Gust Speed Precip Events Conditions
12:20 AM 15.8 °F - 12.2 °F 86% 29.80 in 6.2 mi Variable 1.2 mph - N/A   Unknown
12:50 AM 15.8 °F 10.2 °F 10.4 °F 79% 29.80 in 6.2 mi SSW 3.5 mph - N/A   Unknown
1:20 AM 14.0 °F 8.2 °F 8.6 °F 79% 29.80 in 6.2 mi WNW 3.5 mph - N/A   Unknown
1:50 AM 10.4 °F 4.0 °F 5.0 °F 79% 29.80 in 6.2 mi North 3.5 mph - N/A   Unknown
2:20 AM 10.4 °F 0.8 °F 6.8 °F 85% 29.80 in 6.2 mi WSW 5.8 mph - N/A   Unknown
2:50 AM 12.2 °F 2.9 °F 6.8 °F 79% 29.83 in 6.2 mi NW 5.8 mph - N/A   Unknown
3:20 AM 8.6 °F -1.3 °F 5.0 °F 85% 29.83 in 6.2 mi NW 5.8 mph - N/A   Unknown
3:50 AM 6.8 °F -3.5 °F 5.0 °F 92% 29.83 in 6.2 mi West 5.8 mph - N/A   Unknown
4:20 AM 6.8 °F -3.5 °F 5.0 °F 92% 29.83 in 6.2 mi NNW 5.8 mph - N/A   Unknown
4:50 AM 8.6 °F -2.6 °F 5.0 °F 85% 29.83 in - NW 6.9 mph - N/A   Clear
5:20 AM 5.0 °F -2.1 °F 3.2 °F 92% 29.83 in - NW 3.5 mph - N/A   Clear
5:50 AM 5.0 °F -5.6 °F 1.4 °F 85% 29.83 in - WNW 5.8 mph - N/A   Clear
6:20 AM 6.8 °F -3.5 °F 1.4 °F 79% 29.86 in - NW 5.8 mph - N/A   Clear
6:50 AM 8.6 °F -3.7 °F 5.0 °F 85% 29.86 in - NNW 8.1 mph - N/A   Clear
7:20 AM 10.4 °F 0.8 °F 6.8 °F 85% 29.86 in - NW 5.8 mph - N/A   Clear
7:50 AM 12.2 °F 0.7 °F 6.8 °F 79% 29.86 in - West 8.1 mph - N/A   Clear
8:20 AM 14.0 °F 8.2 °F 8.6 °F 79% 29.86 in - WSW 3.5 mph - N/A   Clear
8:50 AM 17.6 °F 12.3 °F 10.4 °F 73% 29.86 in - NW 3.5 mph - N/A   Clear
9:50 AM 28.4 °F - 14.0 °F 55% 29.86 in - Variable 1.2 mph - N/A   Clear
10:20 AM 28.4 °F - 12.2 °F 51% 29.86 in - Calm Calm - N/A   Clear
10:50 AM 28.4 °F - 12.2 °F 51% 29.86 in - West 2.3 mph - N/A   Clear
11:20 AM 33.8 °F - 14.0 °F 44% 29.86 in - NE 2.3 mph - N/A   Clear
11:50 AM 33.8 °F - 14.0 °F 44% 29.86 in - Variable 2.3 mph - N/A   Clear
12:20 PM 35.6 °F - 14.0 °F 41% 29.86 in 6.2 mi Variable 2.3 mph - N/A   Unknown
12:50 PM 33.8 °F 27.7 °F 14.0 °F 44% 29.86 in 6.2 mi SSW 6.9 mph - N/A   Unknown
1:20 PM 33.8 °F 27.7 °F 14.0 °F 44% 29.86 in 6.2 mi South 6.9 mph - N/A   Unknown
1:50 PM 33.8 °F 27.0 °F 15.8 °F 48% 29.86 in 6.2 mi South 8.1 mph - N/A   Unknown
2:20 PM 35.6 °F 29.2 °F 14.0 °F 41% 29.86 in 6.2 mi SSW 8.1 mph - N/A   Unknown
2:50 PM 35.6 °F 29.2 °F 12.2 °F 38% 29.89 in - WSW 8.1 mph - N/A   Clear
3:20 PM 35.6 °F 29.2 °F 14.0 °F 41% 29.89 in - South 8.1 mph - N/A   Clear
3:50 PM 35.6 °F 28.0 °F 12.2 °F 38% 29.89 in - SSW 10.4 mph - N/A   Clear
4:20 PM 35.6 °F 28.6 °F 12.2 °F 38% 29.89 in - SSW 9.2 mph - N/A   Clear
4:50 PM 35.6 °F 28.6 °F 12.2 °F 38% 29.86 in - SSW 9.2 mph - N/A   Clear
5:20 PM 33.8 °F 26.4 °F 12.2 °F 41% 29.86 in - SSW 9.2 mph - N/A   Clear
5:50 PM 35.6 °F 29.2 °F 12.2 °F 38% 29.86 in 6.2 mi SSW 8.1 mph - N/A   Unknown
6:20 PM 35.6 °F 29.2 °F 12.2 °F 38% 29.86 in - SSW 8.1 mph - N/A   Clear
6:50 PM 33.8 °F 27.7 °F 12.2 °F 41% 29.89 in - SSW 6.9 mph - N/A   Clear
7:50 PM 30.2 °F 25.4 °F 14.0 °F 51% 29.89 in - SW 4.6 mph - N/A   Clear
8:20 PM 26.6 °F 21.2 °F 14.0 °F 59% 29.89 in - SW 4.6 mph - N/A   Clear
8:50 PM 24.8 °F - 12.2 °F 59% 29.89 in - Variable 1.2 mph - N/A   Clear
9:20 PM 23.0 °F - 14.0 °F 68% 29.92 in - Variable 2.3 mph - N/A   Clear
9:50 PM 23.0 °F - 12.2 °F 63% 29.92 in - Variable 2.3 mph - N/A   Clear
10:20 PM 23.0 °F 18.4 °F 14.0 °F 68% 29.92 in 6.2 mi South 3.5 mph - N/A   Unknown
10:50 PM 21.2 °F - 10.4 °F 63% 29.92 in 6.2 mi Variable 2.3 mph - N/A   Unknown
11:20 PM 19.4 °F - 10.4 °F 68% 29.92 in 6.2 mi Calm Calm - N/A   Unknown
11:50 PM 19.4 °F - 10.4 °F 68% 29.92 in 6.2 mi Variable 2.3 mph - N/A   Unknown